ETSL

Details ICAO ETSL
Name LECHFELD
Region Germany - Military
Timezone Europe/Berlin (UTC+2.0)
Plans Departing 1
Arriving 1
Stats Elevation 1,822 ft / 555 m (AMSL)
Location 48.185499° 10.861168°
Runways 1
Magnetic Variation 2.853° E
Sunrise 2017-05-01 03:59:03 UTC / 2017-05-01 05:59:03 Local
Sunset 2017-05-01 18:30:38 UTC / 2017-05-01 20:30:38 Local
Advertisement - Login to hide

Runways

ID Width Length Bearing (true) Bearing (mag) Surface Threshold Offset Overrun Length
03 98 ft / 30 m 8,008 ft / 2,441 m 28.92° 26.07° Concrete 0 ft / 0 m 961 ft / 293 m
21 98 ft / 30 m 8,008 ft / 2,441 m 208.93° 206.08° Concrete 0 ft / 0 m 945 ft / 288 m

Map

Weather

Temperature
Clouds and Precipitation
Forecast for 2017-05-01 00:00 UTC. Updated an hour ago
Winds

METAR

ETSL 302320Z AUTO 01004KT 9999 // ////// 06/03 Q1007 ///

TAF

Not found

Frequencies

Tower 122.10 MHz TWR
Approach 123.30 MHz RADAR
Tower 135.15 MHz TWR
Approach 129.02 MHz RADAR
Warning: Do not use this data for real-world aviation or navigation. No guarantee of current accuracy is given.